Zurück zum Katalog

PAKSAT 1R

AktivKommunikationGEO
NORAD 37779·PAYLOAD·🇵🇰 Pakistan

Gestartet Aug 11, 2011 von Xichang Satellite Launch Center

Loading…

TLE

AktuellSource: Space-Track

Epoche: Sep 14, 2026, 10:09 UTC

1 37779U 11042A   26257.42328449 -.00000256  00000-0  00000-0 0  9993
2 37779   0.9134  83.2783 0000672 167.0338 208.7130  0.99374192 55371

Verfolge PAKSAT 1R in Echtzeit mit AllMySat

Download on the App Store